[[{"header":{"parameterUnit":"m.s-1","parameterCategory":1,"la1":30.2991,"la2":30.254,"lo1":-89.0895,"lo2":-89.0444,"dy":0.0017,"dx":0.0017,"nx":28,"ny":28,"refTime":"2024-08-10T21:00:00:Z","depth":0,"parameterNumber":2,"parameterNumberName":"U-component_of_WINDS"},"data":[0,0,0,0,0,0,0,0,0,0,0,0,0,0,0,0,0,0,0,0,0,0,0,0,0,0,0,0,0,0,0,0,0,0,0,0,0,0,0,0,0,0,0,0,0,0,0,0,0,0,0,0,0,0,0,0,0,0,1.678,1.6781,0,1.6925,1.6926,1.6928,1.6909,1.6907,1.6905,1.6902,1.7055,1.7062,1.7068,0,0,0,0,0,0,0,0,0,0,0,0,0,1.6491,1.6496,1.678,1.6782,1.6783,1.6924,1.6926,1.6928,1.691,1.6907,1.6904,1.6901,1.7053,1.7061,1.7068,0,0,0,0,0,0,0,0,0,0,0,0,0,1.6624,1.6498,1.6779,1.6791,1.6793,1.6924,1.6926,1.6929,1.691,1.6907,1.6903,1.69,1.7051,1.706,1.7069,1.7199,0,0,1.7098,1.7102,0,0,0,0,0,0,0,0,1.6617,1.6635,1.6788,1.679,1.6793,1.6895,1.6881,1.702,1.6911,1.6866,1.6902,1.6898,1.7005,1.7018,1.7053,1.7206,1.7213,1.7099,1.7105,1.7109,1.7112,0,0,0,0,0,0,0,1.6607,1.6628,1.6837,1.679,1.6793,1.679,1.6805,1.6907,1.6954,1.687,1.6869,1.6886,1.7006,1.7044,1.7057,1.7215,1.7099,1.7107,1.7113,1.7117,1.7481,1.7484,0,0,0,0,0,0,1.6595,1.6621,1.6833,1.6842,1.6694,1.6798,1.6815,1.6866,1.6953,1.6963,1.6889,1.6884,1.703,1.7046,1.7062,1.7219,1.7109,1.7118,1.7123,1.7477,1.7481,1.7486,0,0,0,0,0,0,1.6588,1.6614,1.6827,1.6731,1.6758,1.6807,1.6865,1.6871,1.6909,1.6967,1.6976,1.6919,1.7028,1.7049,1.7165,1.7224,1.7122,1.713,1.7472,1.7478,1.7484,1.7534,0,0,0,0,0,0,1.658,1.6612,1.6661,1.6732,1.6763,1.6926,1.6868,1.6876,1.6925,1.692,1.6998,1.7007,1.7027,1.7151,1.7174,1.7235,1.7138,1.7467,1.7475,1.7482,1.7527,1.7541,1.7552,0,0,0,0,0,1.657,1.667,1.6663,1.6689,1.6825,1.6929,1.6947,1.6966,1.693,1.698,1.7017,1.7005,1.7214,1.7163,1.7189,1.7254,1.7463,1.7472,1.7481,1.7521,1.7538,1.7552,0,0,0,0,0,0,1.6606,1.668,1.6673,1.6799,1.6858,1.6926,1.699,1.6983,1.7055,1.7048,1.707,1.7088,1.7205,1.7241,1.7183,1.7383,1.7334,1.7348,1.7355,1.7371,1.7384,1.7372,1.7146,0,0,0,0,0,1.6628,1.6706,1.6766,1.6872,1.6902,1.6941,1.6987,1.6996,1.7059,1.7084,1.713,1.7192,1.7271,1.7324,1.74,1.7532,1.7548,1.759,1.7602,1.7612,1.7625,1.7696,1.7715,1.7515,1.7515,1.7515,0,0,1.6676,1.6726,1.6774,1.688,1.6927,1.7007,1.6962,1.7049,1.7109,1.7098,1.7209,1.7245,1.7316,1.744,1.7497,1.7473,1.7683,1.7624,1.7631,1.7638,1.7707,1.7726,1.7743,1.7521,1.752,1.7519,0,0,1.6803,1.6849,1.6941,1.6988,1.7059,1.7084,1.7106,1.7175,1.7198,1.7309,1.7302,1.7375,1.7511,1.7562,1.7605,1.775,1.7742,1.7775,1.7841,1.791,1.7926,1.794,1.7991,1.8009,1.7787,1.7787,1.7787,0,1.6854,1.6973,1.699,1.7077,1.7124,1.7116,1.721,1.7255,1.7348,1.7381,1.7354,1.7524,1.7571,1.7706,1.7741,1.7777,1.7803,1.7766,1.7922,1.7937,1.795,1.7999,1.8018,1.7791,1.779,1.779,1.779,0,1.7032,1.7114,1.7181,1.7268,1.7323,1.7413,1.7444,1.7498,1.7502,1.753,1.7644,1.77,1.7787,1.782,1.7826,1.7956,1.7939,1.7917,1.7868,1.7972,1.8018,1.8037,1.7796,1.7795,1.7794,1.7793,0,0,1.7186,1.728,1.7304,1.7343,1.742,1.7485,1.7575,1.7658,1.7703,1.7768,1.7844,1.7959,1.7938,1.7988,1.7999,1.806,1.817,1.803,1.8032,1.8054,1.8315,1.8331,1.8352,1.8165,1.8168,1.8171,1.8309,0,1.732,1.7477,1.7495,1.7635,1.7712,1.7705,1.7783,1.7839,1.7868,1.7938,1.797,1.8051,1.8018,1.8047,1.8107,1.8144,1.8223,1.8135,1.8236,1.8239,1.8217,1.8376,1.8394,1.8521,1.8327,1.833,1.8333,0,1.7498,1.7564,1.7712,1.7777,1.781,1.788,1.7957,1.8024,1.8087,1.8104,1.8158,1.8161,1.8255,1.8202,1.8331,1.827,1.8313,1.8337,1.8343,1.8352,1.8292,1.839,1.8562,1.858,1.8361,1.8359,1.8357,0,1.7594,1.7721,1.7826,1.786,1.7938,1.7987,1.8023,1.8082,1.8131,1.8199,1.8231,1.8309,1.8352,1.8414,1.8438,1.8397,1.8566,1.8515,1.8582,1.8581,1.8617,1.8615,1.8798,1.8647,1.8646,1.8646,1.8645,0,1.7741,1.7832,1.787,1.7934,1.8035,1.8055,1.8155,1.8188,1.8241,1.8312,1.8312,1.8378,1.8407,1.8479,1.8499,1.8602,1.8622,1.8638,1.8642,1.8638,1.8636,1.8666,1.8657,1.8651,1.865,1.8649,1.8648,0,1.7866,1.7895,1.8008,1.8073,1.8091,1.8163,1.8218,1.8281,1.8308,1.8398,1.842,1.8464,1.8548,1.8578,1.8682,1.8695,1.8814,1.8812,1.8792,1.8793,1.8858,1.8851,1.9066,1.9095,1.8925,1.8927,1.8928,0,1.7957,1.8026,1.8098,1.8144,1.8181,1.8257,1.8305,1.8327,1.8378,1.8455,1.8508,1.8591,1.8659,1.8794,1.8836,1.8914,1.8913,1.8983,1.8925,1.8917,1.8912,1.8907,1.8914,1.8993,1.8995,1.8997,1.8998,0,1.8116,1.8127,1.8197,1.8272,1.833,1.839,1.8449,1.8488,1.8518,1.8576,1.8661,1.8713,1.8817,1.89,1.898,1.9017,1.9013,1.9016,1.9035,1.9031,1.9016,1.9023,1.882,1.9011,1.9009,1.9008,1.9008,1.9007,1.8227,1.8287,1.8346,1.8424,1.847,1.8524,1.8585,1.862,1.869,1.8775,1.8785,1.8876,1.8937,1.9044,1.9085,1.9157,1.9138,1.9166,1.9173,1.918,1.9184,1.9005,1.9172,1.9171,1.9171,1.9171,1.9171,0,1.8384,1.8421,1.8493,1.8574,1.8635,1.8624,1.8688,1.874,1.882,1.8876,1.8942,1.9039,1.9119,1.9166,1.9246,1.9295,1.9295,1.9315,1.9311,1.932,1.9197,1.9171,1.9314,1.9314,1.9314,1.9314,1.9314,1.9314,1.8473,1.8574,1.8592,1.8716,1.8753,1.8841,1.8879,1.8929,1.8974,1.9082,1.9147,1.9177,1.923,1.9314,1.9386,1.9398,1.9427,1.9449,1.9459,1.9343,1.9329,1.9314,1.929,1.9456,1.9456,1.9576,1.9577,1.9578]},{"header":{"parameterUnit":"m.s-1","parameterCategory":1,"la1":30.2991,"la2":30.254,"lo1":-89.0895,"lo2":-89.0444,"dy":0.0017,"dx":0.0017,"nx":28,"ny":28,"refTime":"2024-08-10T21:00:00:Z","depth":0,"parameterNumber":3,"parameterNumberName":"V-component_of_WINDS"},"data":[0,0,0,0,0,0,0,0,0,0,0,0,0,0,0,0,0,0,0,0,0,0,0,0,0,0,0,0,0,0,0,0,0,0,0,0,0,0,0,0,0,0,0,0,0,0,0,0,0,0,0,0,0,0,0,0,0,0,1.7832,1.7833,0,1.7874,1.7875,1.7875,1.7798,1.7795,1.7793,1.779,1.7834,1.7838,1.7841,0,0,0,0,0,0,0,0,0,0,0,0,0,1.7684,1.7687,1.7832,1.7833,1.7834,1.7874,1.7875,1.7875,1.7798,1.7795,1.7792,1.7789,1.7833,1.7837,1.7842,0,0,0,0,0,0,0,0,0,0,0,0,0,1.7739,1.7688,1.7832,1.78,1.7797,1.7874,1.7875,1.7876,1.7799,1.7795,1.7791,1.7788,1.7832,1.7837,1.7842,1.7953,0,0,1.7859,1.7861,0,0,0,0,0,0,0,0,1.7736,1.7745,1.7804,1.7802,1.78,1.7827,1.7838,1.7902,1.78,1.7799,1.779,1.7786,1.7835,1.784,1.7856,1.7955,1.7957,1.7859,1.7863,1.7865,1.7866,0,0,0,0,0,0,0,1.7733,1.7743,1.7849,1.7805,1.7802,1.7783,1.7786,1.785,1.7838,1.7798,1.7793,1.7799,1.7833,1.7851,1.7857,1.7958,1.7859,1.7864,1.7867,1.7869,1.8142,1.8146,0,0,0,0,0,0,1.7733,1.774,1.7848,1.785,1.7758,1.7788,1.7792,1.7822,1.7837,1.7836,1.7802,1.7795,1.7844,1.7851,1.7858,1.7983,1.7865,1.787,1.7873,1.8138,1.8143,1.8148,0,0,0,0,0,0,1.773,1.7743,1.7846,1.7794,1.7805,1.7795,1.7829,1.7825,1.7843,1.784,1.7837,1.7823,1.7841,1.7851,1.7928,1.7984,1.7872,1.7877,1.8134,1.814,1.8145,1.8238,0,0,0,0,0,0,1.7726,1.7743,1.7785,1.7795,1.7808,1.7917,1.7833,1.7829,1.7852,1.7844,1.7859,1.7858,1.7839,1.7921,1.7934,1.7989,1.7881,1.8128,1.8136,1.8143,1.823,1.8246,1.826,0,0,0,0,0,1.7721,1.7811,1.7788,1.7801,1.7861,1.792,1.7927,1.7904,1.7857,1.7899,1.7896,1.7857,1.7977,1.7929,1.7943,1.8001,1.8125,1.8134,1.8143,1.8223,1.8243,1.826,0,0,0,0,0,0,1.781,1.7812,1.7786,1.7883,1.7901,1.7907,1.7959,1.7927,1.796,1.795,1.792,1.7924,1.8007,1.8013,1.796,1.8106,1.8043,1.8055,1.8099,1.8118,1.8133,1.8128,1.7886,0,0,0,0,0,1.7841,1.7888,1.7888,1.7973,1.7983,1.797,1.7995,1.7974,1.7993,1.8,1.8004,1.8023,1.8064,1.8092,1.813,1.8231,1.8231,1.8278,1.8293,1.8306,1.8315,1.8363,1.8382,1.8177,1.8177,1.8177,0,0,1.7905,1.7912,1.7944,1.7991,1.8003,1.8051,1.7977,1.8033,1.8067,1.8009,1.808,1.8084,1.8103,1.8191,1.8231,1.8199,1.8372,1.8317,1.8327,1.833,1.8375,1.8394,1.8411,1.8184,1.8182,1.8181,0,0,1.8045,1.8058,1.8126,1.8139,1.8158,1.8147,1.8164,1.8173,1.8172,1.8244,1.8199,1.8241,1.8314,1.8327,1.8344,1.8485,1.8448,1.8499,1.8578,1.8625,1.8641,1.8655,1.87,1.8717,1.851,1.851,1.851,0,1.8123,1.8193,1.8166,1.8223,1.8242,1.8191,1.8258,1.8273,1.8304,1.8318,1.8282,1.8369,1.8379,1.8466,1.85,1.8518,1.8532,1.8495,1.8641,1.8655,1.8667,1.871,1.8727,1.8515,1.8515,1.8514,1.8514,0,1.8284,1.8334,1.8387,1.8414,1.8441,1.8504,1.8484,1.8514,1.8492,1.8484,1.8555,1.8565,1.8602,1.8622,1.8602,1.8706,1.8684,1.8646,1.8581,1.8693,1.8732,1.8748,1.8523,1.8521,1.852,1.8518,0,0,1.8482,1.8491,1.851,1.8519,1.8534,1.8572,1.8631,1.8665,1.8688,1.8711,1.8757,1.8818,1.878,1.8799,1.878,1.8822,1.8926,1.8777,1.8777,1.88,1.9035,1.906,1.908,1.8903,1.8907,1.8909,1.9031,0,1.8616,1.8715,1.869,1.8788,1.883,1.8781,1.8831,1.8845,1.8839,1.8874,1.8869,1.891,1.886,1.887,1.891,1.8905,1.8972,1.8897,1.8942,1.8944,1.8934,1.9101,1.9129,1.9244,1.9047,1.905,1.9052,0,1.8786,1.8811,1.8912,1.8914,1.8931,1.8977,1.9003,1.9038,1.9052,1.9045,1.9064,1.9035,1.9091,1.9028,1.9102,1.9051,1.9068,1.9069,1.9073,1.9072,1.9001,1.91,1.9281,1.9296,1.9076,1.9074,1.9073,0,1.8912,1.8972,1.9038,1.9049,1.9055,1.9087,1.9092,1.9101,1.9122,1.9146,1.9158,1.9189,1.9205,1.9229,1.9208,1.9166,1.9284,1.9221,1.9276,1.9277,1.93,1.9298,1.9481,1.932,1.932,1.932,1.9319,0,1.9061,1.9123,1.9094,1.9134,1.9201,1.9173,1.924,1.9239,1.9247,1.9285,1.9246,1.9283,1.9256,1.9289,1.9274,1.9334,1.9344,1.9337,1.9331,1.9338,1.9338,1.9346,1.9335,1.9324,1.9323,1.9322,1.9322,0,1.9212,1.9195,1.9263,1.9263,1.9264,1.9313,1.9312,1.9348,1.9339,1.9387,1.9397,1.9383,1.942,1.9403,1.9444,1.9433,1.9509,1.9495,1.9503,1.9497,1.9552,1.9545,1.9742,1.9764,1.9594,1.9596,1.9598,0,1.9306,1.9352,1.9355,1.9376,1.9382,1.9419,1.9438,1.9412,1.9434,1.945,1.9484,1.9517,1.9542,1.9604,1.9597,1.9626,1.9609,1.9676,1.9613,1.9616,1.9604,1.9599,1.9601,1.9688,1.969,1.9691,1.9693,0,1.9472,1.946,1.9489,1.9514,1.9538,1.9557,1.9573,1.9593,1.9567,1.9593,1.9629,1.9648,1.9687,1.9719,1.9744,1.9748,1.9715,1.9713,1.9726,1.9731,1.9731,1.9726,1.9532,1.9708,1.9706,1.9705,1.9704,1.9704,1.9594,1.963,1.9635,1.9668,1.9676,1.9691,1.9723,1.9717,1.9746,1.9774,1.9757,1.9799,1.9807,1.9837,1.9845,1.9876,1.9849,1.987,1.9874,1.9878,1.9883,1.973,1.9881,1.9881,1.988,1.988,1.9879,0,1.9753,1.9753,1.9783,1.9804,1.9829,1.9796,1.981,1.9833,1.9869,1.988,1.9904,1.9943,1.9974,1.9968,1.9995,2.0021,2.0006,2.0029,2.0024,2.0024,1.9908,1.9891,2.004,2.004,2.004,2.004,2.004,2.0039,1.9838,1.9895,1.9884,1.9944,1.9944,1.9983,1.9993,2.0005,2.0013,2.0058,2.0082,2.0078,2.0081,2.0107,2.0133,2.013,2.014,2.0167,2.0159,2.0049,2.0033,2.0018,2.0001,2.0171,2.0171,2.0271,2.0272,2.0273]}]]